[[[{"header":{"parameterUnit":"kt","parameterCategory":2,"dx":1,"dy":1,"la1":30.253999710083008,"la2":30.299108505249023,"lo1":-89.0895004272461,"lo2":-89.04439544677734,"nx":28,"ny":28,"refTime":"2022-10-04T21:00:00:Z","depth":"0","parameterNumber":2,"parameterNumberName":"U-component_of_CURRENTS"},"data":[0.0306,0.0442,0.0566,0.0796,0.0914,0.1059,0.1152,0.1328,0.1444,0.1731,0.1934,0.1843,0.1527,0.1731,0.2024,0.1909,0.1205,0.1145,0.0669,0.0611,0.0451,0.0298,0.06,0.1788,0.1787,0.0739,0.0731,0.0725,0.0321,0.0461,0.0591,0.0716,0.0831,0.085,0.0935,0.101,0.1101,0.1098,0.0893,0.0842,0.0838,0.0576,0.0993,0.1126,0.0599,0.092,0.0173,0.0036,0.0057,0.0409,0.1577,0.1577,0.1577,0.1577,0.1576,0.1576,0.0358,0.0429,0.0517,0.0613,0.0679,0.0784,0.0829,0.0835,0.0731,0.0382,-0.0082,-0.0409,-0.084,-0.0846,-0.0772,-0.0323,-0.1095,-0.0386,-0.0723,-0.1257,-0.0976,-0.0686,-0.0103,-0.011,-0.0115,-0.012,-0.0125,0,0.0336,0.0383,0.0405,0.0512,0.0552,0.056,0.0499,0.0454,-0.0026,-0.0347,-0.0871,-0.1336,-0.1813,-0.1901,-0.1867,-0.1871,-0.2522,-0.2217,-0.2244,-0.1785,-0.1958,-0.1943,-0.2319,-0.2079,-0.2098,-0.2111,-0.2121,-0.2128,0.0314,0.0338,0.0351,0.038,0.0365,0.0304,0.0224,-0.0167,-0.039,-0.1243,-0.1457,-0.2151,-0.2649,-0.3054,-0.3096,-0.3168,-0.3508,-0.2668,-0.271,-0.2385,-0.2592,-0.3037,-0.3038,-0.2324,-0.2299,-0.2278,-0.2262,0,0.031,0.0277,0.0266,0.0144,0.0118,0.0058,-0.0167,-0.0425,-0.0986,-0.1511,-0.1745,-0.2843,-0.3272,-0.3807,-0.4313,-0.4276,-0.4227,-0.4159,-0.3519,-0.3378,-0.2595,-0.2791,-0.3054,-0.3022,-0.3607,-0.3588,-0.3572,0,0.0245,0.0217,0.0178,0.0151,0.0057,-0.0187,-0.0468,-0.0902,-0.1502,-0.1884,-0.2755,-0.319,-0.3997,-0.433,-0.4511,-0.4409,-0.4876,-0.4325,-0.4276,-0.3902,-0.379,-0.3633,-0.3798,-0.5267,-0.5266,-0.5265,-0.5264,0,0.0225,0.0116,0.0083,0.0012,-0.0275,-0.0409,-0.0616,-0.1326,-0.1645,-0.2521,-0.2826,-0.3638,-0.3955,-0.4279,-0.4476,-0.4539,-0.4851,-0.5016,-0.4346,-0.4288,-0.3854,-0.3733,-0.3782,-0.5263,-0.5262,-0.5262,-0.5262,0,0.0125,0.0098,0.0015,-0.0174,-0.0245,-0.0398,-0.097,-0.1303,-0.2138,-0.2478,-0.3103,-0.3508,-0.4099,-0.3996,-0.4548,-0.4414,-0.4451,-0.4571,-0.458,-0.3753,-0.3602,-0.3221,-0.329,-0.3172,-0.4557,-0.4553,-0.4549,0,0.014,0.0075,-0.005,-0.0207,-0.0294,-0.0633,-0.0969,-0.1443,-0.1895,-0.2414,-0.2964,-0.3407,-0.3483,-0.3675,-0.3957,-0.4197,-0.4359,-0.4199,-0.4338,-0.4339,-0.3568,-0.3743,-0.326,-0.3269,-0.449,-0.4496,-0.45,0,0.0123,-0.0004,-0.0021,-0.007,-0.0393,-0.0533,-0.0931,-0.1409,-0.1723,-0.2136,-0.2599,-0.3141,-0.3313,-0.3532,-0.3774,-0.3995,-0.4248,-0.3868,-0.3873,-0.3865,-0.4562,-0.3757,-0.3719,-0.4309,-0.4318,-0.4325,-0.4454,0,0.0045,-0.0007,-0.0033,-0.0226,-0.0395,-0.0527,-0.0895,-0.115,-0.1376,-0.1705,-0.2237,-0.258,-0.3003,-0.316,-0.3264,-0.3706,-0.3576,-0.3592,-0.3489,-0.3747,-0.3757,-0.3795,-0.3277,-0.3272,-0.3268,-0.3265,0,0,0.0051,-0.0009,-0.0142,-0.0225,-0.0356,-0.0609,-0.0728,-0.1011,-0.1381,-0.1617,-0.1564,-0.2289,-0.2474,-0.3066,-0.3173,-0.3256,-0.3254,-0.3185,-0.3607,-0.3645,-0.3681,-0.3705,-0.3746,-0.3258,-0.3256,-0.3255,-0.3254,0,0.0006,-0.0064,-0.0084,-0.0238,-0.0448,-0.0652,-0.068,-0.0983,-0.1167,-0.1488,-0.1683,-0.2001,-0.2329,-0.2654,-0.2844,-0.3171,-0.31,-0.3189,-0.335,-0.3567,-0.361,-0.3649,-0.3682,-0.3722,-0.3244,-0.3244,-0.3245,0,-0.0047,-0.0144,-0.0174,-0.038,-0.0539,-0.0713,-0.0808,-0.0968,-0.1182,-0.1317,-0.1624,-0.1818,-0.2088,-0.2428,-0.2555,-0.2505,-0.2959,-0.2834,-0.2857,-0.2812,-0.3025,-0.3076,-0.3121,-0.2534,-0.2531,-0.2529,0,0,-0.008,-0.0112,-0.0359,-0.0414,-0.0493,-0.0749,-0.0866,-0.099,-0.1222,-0.1313,-0.1503,-0.1724,-0.1998,-0.2133,-0.2322,-0.2612,-0.261,-0.275,-0.2783,-0.2811,-0.2783,-0.3002,-0.3051,-0.2522,-0.2521,-0.2521,0,0,-0.0122,-0.0312,-0.0371,-0.044,-0.0642,-0.0943,-0.1009,-0.1134,-0.1359,-0.1355,-0.1546,-0.1598,-0.187,-0.1938,-0.1822,-0.2315,-0.2171,-0.2199,-0.231,-0.2353,-0.2385,-0.2306,-0.1806,0,0,0,0,0,-0.0278,-0.0284,-0.0335,-0.0376,-0.0678,-0.0918,-0.0975,-0.1144,-0.1164,-0.1219,-0.1436,-0.1421,-0.1944,-0.1844,-0.1894,-0.2072,-0.2419,-0.2437,-0.2454,-0.266,-0.2704,-0.2741,0,0,0,0,0,0,-0.0295,-0.0337,-0.0339,-0.0616,-0.069,-0.0917,-0.0979,-0.1031,-0.1159,-0.1168,-0.14,-0.143,-0.1551,-0.1821,-0.1866,-0.2035,-0.1791,-0.2426,-0.2442,-0.2456,-0.2675,-0.2711,-0.2742,0,0,0,0,0,-0.031,-0.0345,-0.0741,-0.0624,-0.0687,-0.0936,-0.0974,-0.1018,-0.1122,-0.1341,-0.1376,-0.1229,-0.1551,-0.1595,-0.1848,-0.2015,-0.176,-0.1777,-0.2436,-0.2448,-0.2459,-0.2693,0,0,0,0,0,0,-0.0322,-0.0436,-0.0763,-0.0796,-0.0566,-0.0928,-0.0972,-0.1005,-0.1289,-0.1328,-0.1176,-0.1179,-0.1553,-0.1587,-0.1621,-0.2008,-0.1735,-0.1752,-0.1763,-0.2445,-0.2455,-0.2463,0,0,0,0,0,0,-0.0419,-0.046,-0.078,-0.0696,-0.0722,-0.0919,-0.0958,-0.1141,-0.1286,-0.1108,-0.1121,-0.1173,-0.1453,-0.1582,-0.1608,-0.1896,-0.1716,-0.1732,-0.1744,-0.1751,-0.2453,-0.2461,0,0,0,0,0,0,-0.0443,-0.0479,-0.0689,-0.0709,-0.0731,-0.112,-0.1085,-0.1355,-0.1296,-0.1091,-0.1285,-0.128,-0.1443,-0.1476,-0.16,-0.1876,-0.1891,-0.1717,-0.1728,-0.1736,-0.1741,0,0,0,0,0,0,0,-0.0463,-0.0136,-0.0558,-0.0719,-0.0738,-0.1099,-0.1109,-0.1119,-0.1295,-0.1291,-0.1286,-0.1282,-0.1625,-0.1643,-0.166,-0.1859,0,0,-0.1715,-0.1723,0,0,0,0,0,0,0,0,-0.0129,-0.0134,-0.0559,-0.0565,-0.0571,-0.1101,-0.1109,-0.1117,-0.1294,-0.1291,-0.1287,-0.1284,-0.163,-0.1644,-0.1658,0,0,0,0,0,0,0,0,0,0,0,0,0,0,0,-0.056,-0.0565,0,-0.1102,-0.1108,-0.1115,-0.1294,-0.1291,-0.1288,-0.1285,-0.1634,-0.1645,-0.1657,0,0,0,0,0,0,0,0,0,0,0,0,0,0,0,0,0,0,0,0,0,0,0,0,0,0,0,0,0,0,0,0,0,0,0,0,0,0,0,0,0,0,0,0,0,0,0,0,0,0,0,0,0,0,0,0,0,0,0,0,0,0,0,0,0,0,0,0,0]}],[{"header":{"parameterUnit":"kt","parameterCategory":2,"dx":1,"dy":1,"la1":30.253999710083008,"la2":30.299108505249023,"lo1":-89.0895004272461,"lo2":-89.04439544677734,"nx":28,"ny":28,"refTime":"2022-10-04T21:00:00:Z","depth":"0","parameterNumber":3,"parameterNumberName":"V-component_of_CURRENTS"},"data":[-0.2536,-0.2532,-0.2567,-0.2537,-0.2555,-0.2527,-0.2539,-0.2503,-0.249,-0.2369,-0.2208,-0.2032,-0.1027,0.0382,0.1694,0.206,0.2392,0.2487,0.2641,0.214,0.2071,0.2005,0.2,0.2657,0.2657,0.3086,0.3089,0.3091,-0.2587,-0.2608,-0.2609,-0.2651,-0.2648,-0.2693,-0.274,-0.2714,-0.2755,-0.2762,-0.2722,-0.2132,-0.1003,0.0051,0.1327,0.1864,0.1991,0.2092,0.1916,0.1998,0.1535,0.1529,0.2096,0.2096,0.2096,0.2096,0.2096,0.2095,-0.2689,-0.2679,-0.2744,-0.2774,-0.2789,-0.2811,-0.279,-0.2862,-0.2917,-0.295,-0.2936,-0.2602,-0.1652,-0.0153,0.0471,0.1422,0.1241,0.1467,0.1413,0.1366,0.1516,0.1027,0.1515,0.1514,0.1513,0.1513,0.1512,0,-0.2806,-0.2852,-0.2862,-0.2908,-0.2911,-0.2911,-0.2935,-0.2993,-0.3034,-0.3084,-0.3034,-0.278,-0.1813,-0.0988,0.0076,0.0517,0.0657,0.0735,0.0869,0.076,0.077,0.0966,0.027,0.0598,0.0592,0.0588,0.0585,0.0583,-0.2942,-0.2951,-0.3008,-0.3013,-0.3009,-0.2999,-0.2969,-0.3,-0.3026,-0.3036,-0.3019,-0.2582,-0.2201,-0.1211,-0.054,0.0212,0.0288,0.0574,0.0415,0.0589,0.0626,0.0586,0.0692,0.0519,0.0527,0.0534,0.0539,0,-0.3002,-0.3056,-0.304,-0.3046,-0.3055,-0.3016,-0.2995,-0.2992,-0.3008,-0.3004,-0.2981,-0.2764,-0.2215,-0.1696,-0.1115,-0.083,-0.0182,-0.0102,-0.0101,0.0006,0.0498,0.0462,0.0852,0.1022,0.0366,0.0375,0.0383,0,-0.308,-0.3061,-0.3109,-0.3078,-0.3063,-0.2968,-0.2953,-0.2908,-0.2883,-0.2874,-0.2749,-0.2668,-0.2231,-0.1849,-0.1474,-0.0847,-0.0966,-0.053,-0.0419,-0.0446,-0.0421,-0.0161,-0.0181,-0.0786,-0.0788,-0.0791,-0.0793,0,-0.3099,-0.3074,-0.3073,-0.3024,-0.2903,-0.2899,-0.2815,-0.2719,-0.2704,-0.2654,-0.2628,-0.2423,-0.224,-0.1954,-0.142,-0.1496,-0.0956,-0.1023,-0.0552,-0.0528,-0.0368,-0.033,-0.0118,-0.0796,-0.0797,-0.0798,-0.0799,0,-0.3081,-0.3084,-0.3046,-0.2981,-0.2937,-0.2837,-0.2724,-0.2635,-0.2551,-0.2486,-0.2406,-0.2255,-0.207,-0.1919,-0.1525,-0.1609,-0.1353,-0.1159,-0.1142,-0.0773,-0.066,-0.036,-0.0321,-0.0167,-0.0894,-0.0896,-0.0899,0,-0.3099,-0.3078,-0.3023,-0.2909,-0.2838,-0.2644,-0.2587,-0.2414,-0.2299,-0.2215,-0.2088,-0.1994,-0.1814,-0.1744,-0.1632,-0.1368,-0.127,-0.1392,-0.099,-0.0976,-0.0706,-0.0712,-0.0689,-0.0376,-0.0929,-0.0925,-0.0923,0,-0.3085,-0.3035,-0.3016,-0.297,-0.2691,-0.2509,-0.2462,-0.2254,-0.2236,-0.2001,-0.1954,-0.1824,-0.1686,-0.1627,-0.1498,-0.1404,-0.1303,-0.1264,-0.1253,-0.1115,-0.1068,-0.0785,-0.0736,-0.1277,-0.1276,-0.1275,-0.0947,0,-0.3036,-0.3013,-0.2996,-0.2841,-0.2639,-0.2478,-0.221,-0.2104,-0.1928,-0.1726,-0.1681,-0.1505,-0.1372,-0.1356,-0.1246,-0.1243,-0.1154,-0.1114,-0.0997,-0.1103,-0.0942,-0.0925,-0.1065,-0.106,-0.1057,-0.1054,0,0,-0.3007,-0.3,-0.2828,-0.275,-0.2558,-0.2188,-0.2065,-0.1892,-0.1503,-0.1474,-0.136,-0.119,-0.1086,-0.1095,-0.1091,-0.1072,-0.0976,-0.1036,-0.1071,-0.1074,-0.1076,-0.0929,-0.0917,-0.1047,-0.1046,-0.1045,-0.1043,0,-0.2983,-0.2934,-0.2933,-0.2717,-0.235,-0.2095,-0.2041,-0.1613,-0.1473,-0.1343,-0.1183,-0.1116,-0.1019,-0.0925,-0.0885,-0.1023,-0.0859,-0.1027,-0.1132,-0.1044,-0.1052,-0.1058,-0.0917,-0.0908,-0.1034,-0.1035,-0.1035,0,-0.2918,-0.2773,-0.2741,-0.2452,-0.2181,-0.199,-0.169,-0.1415,-0.1279,-0.1058,-0.0945,-0.0853,-0.0753,-0.0758,-0.0759,-0.0702,-0.073,-0.0766,-0.0784,-0.0757,-0.0657,-0.0669,-0.0679,-0.0537,-0.0536,-0.0535,0,0,-0.2882,-0.2879,-0.2475,-0.2397,-0.2278,-0.1824,-0.1608,-0.1352,-0.1109,-0.1007,-0.0854,-0.0762,-0.0721,-0.0696,-0.0639,-0.0685,-0.0563,-0.0713,-0.0736,-0.0756,-0.0742,-0.0648,-0.066,-0.0532,-0.0532,-0.0532,0,0,-0.2786,-0.2505,-0.2382,-0.232,-0.1957,-0.1452,-0.1314,-0.1068,-0.0888,-0.0905,-0.0705,-0.0675,-0.0686,-0.0615,-0.0582,-0.0602,-0.0496,-0.0502,-0.0662,-0.0689,-0.0712,-0.07,-0.0414,0,0,0,0,0,-0.2529,-0.2571,-0.2467,-0.2396,-0.1937,-0.1552,-0.1458,-0.1043,-0.0939,-0.0853,-0.074,-0.0644,-0.0541,-0.0509,-0.05,-0.056,-0.0486,-0.0494,-0.0502,-0.0717,-0.0747,-0.0772,0,0,0,0,0,0,-0.2499,-0.2442,-0.2454,-0.2002,-0.188,-0.1557,-0.1328,-0.1218,-0.0937,-0.0892,-0.0666,-0.0639,-0.0517,-0.0506,-0.05,-0.0559,-0.0415,-0.0489,-0.0496,-0.0502,-0.0727,-0.0752,-0.0773,0,0,0,0,0,-0.2472,-0.2423,-0.186,-0.1987,-0.1884,-0.1315,-0.1329,-0.1233,-0.1033,-0.0772,-0.0724,-0.0719,-0.0523,-0.0508,-0.0502,-0.0565,-0.0419,-0.0417,-0.0494,-0.0499,-0.0504,-0.0739,0,0,0,0,0,0,-0.2451,-0.2329,-0.1822,-0.176,-0.1959,-0.1317,-0.1238,-0.125,-0.0934,-0.0864,-0.0831,-0.0804,-0.0528,-0.0515,-0.0505,-0.0573,-0.0422,-0.042,-0.0419,-0.0498,-0.0502,-0.0506,0,0,0,0,0,0,-0.2344,-0.2288,-0.1792,-0.1784,-0.1719,-0.1322,-0.1252,-0.1253,-0.0953,-0.1025,-0.0977,-0.0825,-0.066,-0.0521,-0.0512,-0.0513,-0.0425,-0.0423,-0.0421,-0.042,-0.0501,-0.0505,0,0,0,0,0,0,-0.2306,-0.2255,-0.18,-0.1751,-0.1694,-0.0997,-0.1326,-0.0976,-0.064,-0.1062,-0.0626,-0.0619,-0.0681,-0.0658,-0.0518,-0.0524,-0.0516,-0.0425,-0.0423,-0.0422,-0.0422,0,0,0,0,0,0,0,-0.2274,-0.2799,-0.2149,-0.1723,-0.1673,-0.1181,-0.1168,-0.1155,-0.0639,-0.0633,-0.0627,-0.0622,-0.0436,-0.0434,-0.0432,-0.0533,0,0,-0.0425,-0.0424,0,0,0,0,0,0,0,0,-0.2802,-0.28,-0.2146,-0.2131,-0.2117,-0.1179,-0.1169,-0.1158,-0.0638,-0.0633,-0.0628,-0.0624,-0.0436,-0.0434,-0.0432,0,0,0,0,0,0,0,0,0,0,0,0,0,0,0,-0.2145,-0.2132,0,-0.1178,-0.1169,-0.1161,-0.0637,-0.0633,-0.0629,-0.0626,-0.0435,-0.0434,-0.0432,0,0,0,0,0,0,0,0,0,0,0,0,0,0,0,0,0,0,0,0,0,0,0,0,0,0,0,0,0,0,0,0,0,0,0,0,0,0,0,0,0,0,0,0,0,0,0,0,0,0,0,0,0,0,0,0,0,0,0,0,0,0,0,0,0,0,0,0,0]}]],[[{"header":{"parameterUnit":"kt","parameterCategory":2,"dx":1,"dy":1,"la1":30.253999710083008,"la2":30.299108505249023,"lo1":-89.0895004272461,"lo2":-89.04439544677734,"nx":28,"ny":28,"refTime":"2022-10-04T21:00:00:Z","depth":"2","parameterNumber":2,"parameterNumberName":"U-component_of_CURRENTS"},"data":[-0.3432,-0.3374,-0.3258,-0.3099,-0.306,-0.2904,-0.2792,-0.2552,-0.2286,-0.1729,-0.1319,-0.1154,-0.1122,-0.0862,-0.0937,-0.0828,-0.1097,-0.0817,-0.1462,-0.159,-0.1639,-0.1852,-0.1784,0,0,0,0,0,-0.3367,-0.3285,-0.3299,-0.327,-0.3235,-0.3316,-0.3296,-0.3181,-0.2906,-0.2576,-0.2196,-0.1638,-0.1331,-0.129,-0.1203,-0.1272,-0.1348,-0.1252,-0.1318,-0.1377,-0.1431,-0.1344,-0.0844,-0.0841,-0.0838,-0.0836,0,0,-0.325,-0.3229,-0.3261,-0.3301,-0.34,-0.3377,-0.3402,-0.3449,-0.3396,-0.3109,-0.2941,-0.2398,-0.234,-0.1874,-0.176,-0.1786,-0.2001,-0.1973,-0.1998,-0.203,-0.1968,-0.1956,-0.1636,-0.1639,-0.1642,-0.1644,-0.1646,0,-0.3153,-0.3166,-0.3221,-0.3289,-0.3416,-0.354,-0.373,-0.3793,-0.3924,-0.3819,-0.3467,-0.3189,-0.2878,-0.2463,-0.2341,-0.2231,-0.2491,-0.2323,-0.2786,-0.237,-0.237,-0.2411,-0.2453,-0.2135,-0.2141,-0.2146,-0.2149,-0.2151,-0.3109,-0.311,-0.3227,-0.3278,-0.3383,-0.3601,-0.3748,-0.4007,-0.4037,-0.3985,-0.3904,-0.3705,-0.3344,-0.306,-0.29,-0.2708,-0.283,-0.2467,-0.2479,-0.2929,-0.2965,-0.299,-0.3013,-0.2216,-0.2208,-0.2201,-0.2195,0,-0.3101,-0.3138,-0.3202,-0.3343,-0.3427,-0.3534,-0.3875,-0.393,-0.4067,-0.4052,-0.4082,-0.3933,-0.3667,-0.3543,-0.3354,-0.3263,-0.3088,-0.2995,-0.2813,-0.2794,-0.3036,-0.3052,-0.2798,-0.2791,-0.2785,-0.2781,-0.2777,0,-0.3137,-0.3206,-0.33,-0.3352,-0.3455,-0.36,-0.3736,-0.3813,-0.3936,-0.3923,-0.3914,-0.3809,-0.3771,-0.3606,-0.3511,-0.3284,-0.3339,-0.3177,-0.3184,-0.3024,-0.3003,-0.3386,-0.3397,-0.3297,-0.3298,-0.3298,-0.3299,0,-0.317,-0.3298,-0.333,-0.3385,-0.3535,-0.3601,-0.372,-0.3751,-0.3843,-0.3849,-0.3889,-0.3747,-0.3782,-0.3657,-0.3539,-0.3592,-0.3374,-0.3462,-0.3263,-0.3258,-0.3,-0.2975,-0.33,-0.33,-0.33,-0.33,-0.33,0,-0.326,-0.3334,-0.338,-0.3525,-0.3564,-0.3633,-0.3708,-0.3778,-0.3764,-0.3832,-0.3775,-0.3761,-0.367,-0.3731,-0.356,-0.3626,-0.3587,-0.3566,-0.3564,-0.3364,-0.345,-0.3179,-0.3036,-0.3605,-0.3607,-0.361,-0.3612,0,-0.3269,-0.3361,-0.3471,-0.3541,-0.3575,-0.3704,-0.3731,-0.3783,-0.3817,-0.3829,-0.3806,-0.382,-0.379,-0.3845,-0.3754,-0.3732,-0.3658,-0.3729,-0.3635,-0.3631,-0.3501,-0.3414,-0.3195,-0.3088,-0.3639,-0.3636,-0.3634,0,-0.3296,-0.3442,-0.3477,-0.3526,-0.3697,-0.378,-0.3785,-0.3836,-0.382,-0.3905,-0.3889,-0.3832,-0.3858,-0.3809,-0.3806,-0.3752,-0.371,-0.3789,-0.3786,-0.3759,-0.3619,-0.3475,-0.3444,-0.3743,-0.3739,-0.3736,-0.3656,0,-0.3358,-0.3449,-0.3484,-0.3622,-0.3707,-0.379,-0.3887,-0.3935,-0.3996,-0.4012,-0.4002,-0.4022,-0.3968,-0.3966,-0.3958,-0.3842,-0.3865,-0.3879,-0.3847,-0.383,-0.3806,-0.3789,-0.3971,-0.397,-0.3969,-0.3968,0,0,-0.3362,-0.3473,-0.3613,-0.3698,-0.3762,-0.3884,-0.3931,-0.396,-0.4069,-0.4058,-0.4135,-0.4061,-0.4048,-0.3927,-0.3929,-0.3957,-0.3941,-0.3906,-0.3859,-0.3848,-0.3837,-0.3811,-0.3796,-0.3966,-0.3966,-0.3966,-0.3966,0,-0.3414,-0.3542,-0.3586,-0.3693,-0.3844,-0.3887,-0.3933,-0.4037,-0.4055,-0.4126,-0.4067,-0.4065,-0.4074,-0.3987,-0.3948,-0.3961,-0.3902,-0.3963,-0.391,-0.3856,-0.3846,-0.3837,-0.381,-0.3798,-0.3963,-0.3964,-0.3964,0,-0.3447,-0.3576,-0.3603,-0.3799,-0.3846,-0.3893,-0.3941,-0.4026,-0.4042,-0.4047,-0.4034,-0.4038,-0.3982,-0.3968,-0.3964,-0.3953,-0.3877,-0.3922,-0.3926,-0.3845,-0.3785,-0.3775,-0.3766,-0.3877,-0.3877,-0.3876,0,0,-0.3496,-0.3583,-0.3735,-0.3815,-0.3859,-0.3926,-0.396,-0.4005,-0.4046,-0.4053,-0.4046,-0.4009,-0.3974,-0.3974,-0.3948,-0.3955,-0.3896,-0.3914,-0.3918,-0.3922,-0.3846,-0.3786,-0.3777,-0.3876,-0.3876,-0.3876,0,0,-0.3489,-0.3653,-0.3698,-0.3797,-0.3907,-0.3969,-0.3974,-0.4011,-0.403,-0.4009,-0.3978,-0.3976,-0.3983,-0.396,-0.3968,-0.3903,-0.3882,-0.3881,-0.3926,-0.3931,-0.3934,-0.3845,-0.3884,0,0,0,0,0,-0.3594,-0.3646,-0.3687,-0.3719,-0.3849,-0.3967,-0.3974,-0.3985,-0.3954,-0.3999,-0.3984,-0.3934,-0.394,-0.3948,-0.3945,-0.3909,-0.3876,-0.3876,-0.3876,-0.3934,-0.3939,-0.3943,0,0,0,0,0,0,-0.3607,-0.3649,-0.3684,-0.376,-0.3789,-0.3962,-0.3902,-0.3904,-0.3952,-0.3951,-0.3935,-0.3931,-0.3895,-0.3945,-0.3944,-0.3909,-0.3885,-0.3876,-0.3876,-0.3876,-0.3936,-0.394,-0.3944,0,0,0,0,0,-0.3618,-0.3651,-0.3879,-0.3754,-0.3779,-0.3819,-0.39,-0.3902,-0.3929,-0.391,-0.3907,-0.3947,-0.3895,-0.3894,-0.3944,-0.391,-0.3886,-0.3885,-0.3876,-0.3876,-0.3876,-0.3938,0,0,0,0,0,0,-0.3626,-0.3607,-0.3881,-0.3886,-0.3753,-0.3809,-0.3826,-0.39,-0.3883,-0.3885,-0.3916,-0.3915,-0.3896,-0.3894,-0.3893,-0.3912,-0.3886,-0.3886,-0.3886,-0.3876,-0.3876,-0.3876,0,0,0,0,0,0,-0.359,-0.3611,-0.3883,-0.3881,-0.3885,-0.3799,-0.3815,-0.3814,-0.3882,-0.3886,-0.3887,-0.3916,-0.3902,-0.3895,-0.3894,-0.3888,-0.3887,-0.3886,-0.3886,-0.3886,-0.3876,-0.3876,0,0,0,0,0,0,-0.3597,-0.3615,-0.3879,-0.3882,-0.3885,-0.3924,-0.3792,-0.3918,-0.3907,-0.3884,-0.3906,-0.3906,-0.3903,-0.3901,-0.3894,-0.3889,-0.3888,-0.3887,-0.3887,-0.3886,-0.3886,0,0,0,0,0,0,0,-0.3603,-0.3503,-0.3873,-0.3882,-0.3885,-0.3933,-0.3932,-0.3931,-0.3907,-0.3907,-0.3906,-0.3906,-0.3889,-0.3889,-0.3888,-0.389,0,0,-0.3887,-0.3887,0,0,0,0,0,0,0,0,-0.3493,-0.35,-0.3874,-0.3876,-0.3878,-0.3932,-0.3932,-0.3931,-0.3907,-0.3907,-0.3906,-0.3906,-0.3889,-0.3889,-0.3888,0,0,0,0,0,0,0,0,0,0,0,0,0,0,0,-0.3874,-0.3876,0,-0.3932,-0.3932,-0.3931,-0.3907,-0.3907,-0.3906,-0.3906,-0.3889,-0.3889,-0.3888,0,0,0,0,0,0,0,0,0,0,0,0,0,0,0,0,0,0,0,0,0,0,0,0,0,0,0,0,0,0,0,0,0,0,0,0,0,0,0,0,0,0,0,0,0,0,0,0,0,0,0,0,0,0,0,0,0,0,0,0,0,0,0,0,0,0,0,0,0]}],[{"header":{"parameterUnit":"kt","parameterCategory":2,"dx":1,"dy":1,"la1":30.253999710083008,"la2":30.299108505249023,"lo1":-89.0895004272461,"lo2":-89.04439544677734,"nx":28,"ny":28,"refTime":"2022-10-04T21:00:00:Z","depth":"2","parameterNumber":3,"parameterNumberName":"V-component_of_CURRENTS"},"data":[-0.0619,-0.0697,-0.0765,-0.0836,-0.0881,-0.088,-0.0871,-0.0845,-0.0737,-0.0607,-0.0403,-0.0237,0.0161,0.0414,0.0642,0.0893,0.0927,0.0897,0.1095,0.0844,0.0847,0.1008,0.0929,0,0,0,0,0,-0.0666,-0.0731,-0.0836,-0.0908,-0.0969,-0.0993,-0.1021,-0.0988,-0.0904,-0.0781,-0.0639,-0.0345,0.0071,0.0501,0.0989,0.1212,0.114,0.1227,0.1041,0.1044,0.1047,0.0997,0.1011,0.1012,0.1013,0.1014,0,0,-0.0717,-0.0784,-0.0834,-0.0911,-0.0982,-0.102,-0.1027,-0.102,-0.0981,-0.0849,-0.0783,-0.0484,-0.0188,0.0645,0.0947,0.128,0.1299,0.1277,0.1271,0.1268,0.1234,0.1252,0.1308,0.131,0.1312,0.1313,0.1315,0,-0.0706,-0.0734,-0.0791,-0.0878,-0.0929,-0.0987,-0.0996,-0.1015,-0.0924,-0.0877,-0.0739,-0.0579,-0.0033,0.0395,0.0963,0.1151,0.1215,0.1286,0.1412,0.1014,0.1024,0.1098,0.1106,0.104,0.1041,0.1042,0.1042,0.1042,-0.0644,-0.0691,-0.077,-0.0813,-0.0833,-0.0875,-0.0883,-0.0827,-0.0807,-0.0697,-0.0662,-0.037,-0.0137,0.0449,0.085,0.1256,0.1292,0.1288,0.1228,0.1355,0.1434,0.1434,0.1434,0.105,0.1049,0.1048,0.1047,0,-0.0602,-0.0617,-0.0692,-0.0716,-0.073,-0.0764,-0.0758,-0.0753,-0.0665,-0.0618,-0.0583,-0.0335,-0.0007,0.0346,0.0708,0.0885,0.1158,0.1263,0.1107,0.1165,0.1411,0.1416,0.1418,0.1422,0.1425,0.1428,0.143,0,-0.0529,-0.0573,-0.0597,-0.0624,-0.0686,-0.0623,-0.065,-0.0582,-0.0495,-0.0459,-0.0281,-0.0205,0.0148,0.0374,0.0629,0.0962,0.0895,0.1172,0.1252,0.1098,0.11,0.1202,0.1217,0.1064,0.1063,0.1063,0.1062,0,-0.0451,-0.0489,-0.0544,-0.0543,-0.0521,-0.0529,-0.0493,-0.039,-0.034,-0.0209,-0.0147,0.0019,0.0199,0.0338,0.0741,0.0737,0.0998,0.1036,0.1234,0.1247,0.1155,0.1164,0.1061,0.1061,0.106,0.106,0.106,0,-0.0372,-0.0391,-0.0451,-0.0458,-0.0453,-0.0448,-0.0385,-0.0317,-0.0179,-0.0049,0.0064,0.0247,0.0405,0.0558,0.0792,0.0781,0.0936,0.1101,0.1109,0.1254,0.141,0.1298,0.1204,0.1287,0.1288,0.1288,0.1289,0,-0.0304,-0.035,-0.0309,-0.0342,-0.0355,-0.0239,-0.0199,-0.009,0.0059,0.0168,0.0384,0.0548,0.0728,0.0845,0.0891,0.1158,0.1152,0.1153,0.1312,0.1317,0.1379,0.1308,0.1138,0.1217,0.1298,0.1297,0.1296,0,-0.0234,-0.0223,-0.0221,-0.0232,-0.0128,-0.0083,-0.0032,0.0074,0.0097,0.0344,0.0405,0.0717,0.0839,0.0959,0.1148,0.1186,0.1185,0.1304,0.1309,0.1309,0.1206,0.1313,0.1319,0.1207,0.1204,0.1201,0.1303,0,-0.0165,-0.0163,-0.0171,-0.0121,-0.006,-0.0024,0.0111,0.0206,0.0354,0.0476,0.0667,0.0951,0.1139,0.1247,0.1406,0.1411,0.1468,0.1522,0.1541,0.1473,0.1542,0.1535,0.1659,0.1663,0.1665,0.1668,0,0,-0.0098,-0.0092,0.0008,0.0015,0.0051,0.0211,0.0216,0.0326,0.0565,0.0627,0.0756,0.1111,0.133,0.1439,0.1476,0.1602,0.1624,0.1582,0.1536,0.152,0.1507,0.1564,0.1555,0.1673,0.1674,0.1675,0.1675,0,-0.0059,-0.0002,-0.0014,0.0057,0.0165,0.0252,0.0269,0.0438,0.0537,0.0724,0.088,0.1062,0.1368,0.1488,0.1591,0.1632,0.1711,0.17,0.1556,0.156,0.1541,0.1525,0.1577,0.1567,0.1682,0.1682,0.1681,0,0.0007,0.0065,0.0072,0.0186,0.0263,0.0301,0.0423,0.0503,0.0557,0.0802,0.0954,0.1149,0.1366,0.153,0.1622,0.164,0.1759,0.1786,0.1776,0.1729,0.1735,0.1715,0.1697,0.1916,0.1916,0.1916,0,0,0.0041,0.0056,0.0182,0.0204,0.0237,0.0379,0.0438,0.0529,0.0689,0.0768,0.0964,0.1156,0.133,0.1439,0.1624,0.1769,0.18,0.1805,0.1794,0.1784,0.1733,0.1736,0.1718,0.1915,0.1915,0.1915,0,0,0.0069,0.0164,0.0208,0.0231,0.0343,0.0494,0.0522,0.0611,0.079,0.0807,0.1027,0.1093,0.1286,0.1412,0.138,0.1616,0.1672,0.1685,0.1513,0.1502,0.1492,0.138,0.1498,0,0,0,0,0,0.015,0.014,0.0178,0.0196,0.0344,0.0461,0.049,0.0615,0.0649,0.0698,0.0886,0.0984,0.1432,0.1408,0.1467,0.1479,0.1906,0.1908,0.1909,0.1726,0.1713,0.1701,0,0,0,0,0,0,0.0158,0.0177,0.0179,0.0313,0.0348,0.0461,0.0529,0.0566,0.0649,0.0667,0.0941,0.0991,0.1141,0.139,0.144,0.1447,0.1481,0.1907,0.1908,0.1909,0.1722,0.171,0.1701,0,0,0,0,0,0.0164,0.018,0.0373,0.0318,0.0348,0.0507,0.0531,0.0562,0.0649,0.0877,0.0928,0.0738,0.1135,0.1194,0.1421,0.142,0.1448,0.1466,0.1908,0.1909,0.191,0.1716,0,0,0,0,0,0,0.0169,0.0237,0.0384,0.04,0.0324,0.0508,0.0537,0.0558,0.0861,0.0904,0.0683,0.0694,0.1132,0.1178,0.1222,0.1399,0.142,0.1439,0.145,0.1908,0.1909,0.191,0,0,0,0,0,0,0.0229,0.0249,0.0393,0.0393,0.0411,0.0507,0.0533,0.0714,0.0868,0.0656,0.067,0.0685,0.1107,0.1167,0.1201,0.1477,0.1399,0.1417,0.1429,0.1437,0.1909,0.191,0,0,0,0,0,0,0.0241,0.0259,0.039,0.0404,0.042,0.0616,0.068,0.0855,0.0764,0.0646,0.0769,0.0771,0.1095,0.1132,0.1187,0.1446,0.1469,0.14,0.1412,0.1421,0.1426,0,0,0,0,0,0,0,0.0251,0.0089,0.0277,0.0413,0.0427,0.0544,0.055,0.0555,0.0765,0.0767,0.0769,0.077,0.1299,0.1318,0.1338,0.1421,0,0,0.1398,0.1407,0,0,0,0,0,0,0,0,0.0086,0.0088,0.0277,0.028,0.0283,0.0545,0.055,0.0554,0.0765,0.0767,0.0768,0.077,0.1304,0.132,0.1336,0,0,0,0,0,0,0,0,0,0,0,0,0,0,0,0.0278,0.028,0,0.0546,0.055,0.0553,0.0765,0.0766,0.0768,0.0769,0.1309,0.1322,0.1335,0,0,0,0,0,0,0,0,0,0,0,0,0,0,0,0,0,0,0,0,0,0,0,0,0,0,0,0,0,0,0,0,0,0,0,0,0,0,0,0,0,0,0,0,0,0,0,0,0,0,0,0,0,0,0,0,0,0,0,0,0,0,0,0,0,0,0,0,0]}]],[[{"header":{"parameterUnit":"kt","parameterCategory":2,"dx":1,"dy":1,"la1":30.253999710083008,"la2":30.299108505249023,"lo1":-89.0895004272461,"lo2":-89.04439544677734,"nx":28,"ny":28,"refTime":"2022-10-04T21:00:00:Z","depth":"4","parameterNumber":2,"parameterNumberName":"U-component_of_CURRENTS"},"data":[-0.1346,-0.1367,-0.1368,-0.1257,-0.1214,-0.1235,-0.13,-0.1415,-0.1376,-0.1542,-0.1556,-0.1686,-0.1738,-0.1809,-0.1785,-0.1816,-0.1789,-0.209,-0.2084,-0.2126,-0.214,-0.2153,-0.212,0,0,0,0,0,-0.1418,-0.1402,-0.1423,-0.1437,-0.1479,-0.1502,-0.1626,-0.1719,-0.1877,-0.1755,-0.1853,-0.1833,-0.1838,-0.1909,-0.1849,-0.2074,-0.2113,-0.2001,-0.2026,-0.2135,-0.2151,-0.2114,0,0,0,0,0,0,-0.1514,-0.1522,-0.1591,-0.1624,-0.1683,-0.167,-0.176,-0.1775,-0.1842,-0.2002,-0.1956,-0.2046,-0.2158,-0.2139,-0.2131,-0.212,-0.2071,-0.198,-0.2003,-0.202,-0.1964,-0.1881,-0.1727,0,0,0,0,0,-0.1594,-0.166,-0.1721,-0.1776,-0.184,-0.1898,-0.1986,-0.2003,-0.216,-0.2309,-0.2241,-0.2239,-0.2244,-0.2252,-0.227,-0.2221,-0.2384,-0.2313,-0.232,-0.2275,-0.2235,-0.2221,-0.2227,-0.2212,-0.2214,-0.2215,-0.2216,0,-0.1686,-0.1716,-0.1872,-0.1902,-0.1975,-0.2076,-0.213,-0.2308,-0.2342,-0.2473,-0.2453,-0.252,-0.2545,-0.2402,-0.2479,-0.2434,-0.2395,-0.2355,-0.2308,-0.226,-0.2243,-0.2245,-0.2246,-0.2228,-0.2227,-0.2226,-0.2225,0,-0.1729,-0.1827,-0.1906,-0.206,-0.2107,-0.2164,-0.2322,-0.2368,-0.2505,-0.2542,-0.2566,-0.266,-0.2645,-0.2682,-0.265,-0.2563,-0.2494,-0.2435,-0.2562,-0.2549,-0.2271,-0.2267,-0.225,-0.2245,-0.2241,-0.2238,-0.2235,0,-0.1825,-0.1882,-0.2021,-0.2057,-0.2141,-0.2261,-0.2353,-0.2443,-0.2555,-0.2581,-0.268,-0.2672,-0.2717,-0.271,-0.2651,-0.2539,-0.2632,-0.2411,-0.239,-0.2517,-0.2513,-0.2504,-0.2497,-0.2564,-0.2564,-0.2564,-0.2564,0,-0.1857,-0.198,-0.2049,-0.2091,-0.2232,-0.2295,-0.2374,-0.2482,-0.2533,-0.2627,-0.2664,-0.2699,-0.2686,-0.2681,-0.2599,-0.2591,-0.2585,-0.2563,-0.2407,-0.2397,-0.2502,-0.2495,-0.2564,-0.2564,-0.2564,-0.2564,-0.2565,0,-0.193,-0.1991,-0.2071,-0.2198,-0.2227,-0.2286,-0.2405,-0.2463,-0.2549,-0.2588,-0.2632,-0.2631,-0.2618,-0.2575,-0.2555,-0.2559,-0.2513,-0.248,-0.2479,-0.2344,-0.2301,-0.2381,-0.2441,-0.2441,-0.244,-0.2439,-0.2439,0,-0.194,-0.2017,-0.2086,-0.2166,-0.2207,-0.2287,-0.2348,-0.2411,-0.246,-0.2518,-0.2506,-0.2528,-0.2479,-0.2474,-0.2475,-0.243,-0.243,-0.2412,-0.2425,-0.2424,-0.2297,-0.2325,-0.2447,-0.243,-0.2431,-0.2432,-0.2433,0,-0.1934,-0.2049,-0.2059,-0.2103,-0.2194,-0.2222,-0.2292,-0.2351,-0.2396,-0.2434,-0.2484,-0.245,-0.245,-0.2434,-0.2393,-0.2394,-0.2409,-0.2374,-0.2375,-0.2359,-0.2462,-0.2329,-0.2321,-0.2439,-0.244,-0.2442,-0.2426,0,-0.1974,-0.2028,-0.2052,-0.2117,-0.2159,-0.22,-0.2237,-0.2285,-0.2317,-0.2335,-0.2379,-0.2347,-0.2359,-0.2346,-0.2298,-0.2328,-0.2321,-0.2321,-0.2294,-0.2339,-0.2322,-0.2328,-0.2255,-0.2254,-0.2254,-0.2253,0,0,-0.1949,-0.1998,-0.2035,-0.2073,-0.2106,-0.2132,-0.217,-0.2191,-0.2229,-0.2253,-0.2251,-0.2279,-0.2248,-0.2253,-0.2252,-0.2247,-0.2261,-0.225,-0.2314,-0.232,-0.2327,-0.2314,-0.232,-0.2252,-0.2252,-0.2251,-0.2251,0,-0.1946,-0.1994,-0.2025,-0.2055,-0.2096,-0.2111,-0.213,-0.2163,-0.2184,-0.222,-0.2204,-0.221,-0.2229,-0.2208,-0.2195,-0.2236,-0.2229,-0.2251,-0.2279,-0.2306,-0.2314,-0.2321,-0.231,-0.2316,-0.2249,-0.2249,-0.2249,0,-0.1933,-0.1963,-0.1982,-0.2028,-0.2046,-0.2077,-0.2067,-0.2104,-0.213,-0.2104,-0.2158,-0.2152,-0.2132,-0.2152,-0.2164,-0.2148,-0.2195,-0.2178,-0.2182,-0.2185,-0.2211,-0.222,-0.2228,-0.2125,-0.2124,-0.2124,0,0,-0.193,-0.197,-0.1991,-0.2024,-0.204,-0.2054,-0.207,-0.2084,-0.2096,-0.2109,-0.212,-0.2125,-0.2121,-0.2127,-0.2131,-0.2147,-0.2142,-0.2163,-0.2169,-0.2174,-0.2179,-0.2207,-0.2216,-0.2123,-0.2122,-0.2122,0,0,-0.1916,-0.1954,-0.1965,-0.2006,-0.2026,-0.2032,-0.2058,-0.2066,-0.2088,-0.2099,-0.2083,-0.2084,-0.2114,-0.2103,-0.2087,-0.2124,-0.2099,-0.2102,-0.2129,-0.2136,-0.2141,-0.2147,-0.2062,0,0,0,0,0,-0.1916,-0.1948,-0.1958,-0.1966,-0.2005,-0.2026,-0.2031,-0.2048,-0.2055,-0.2079,-0.2083,-0.2071,-0.2094,-0.2079,-0.2078,-0.21,-0.2105,-0.2108,-0.2111,-0.2149,-0.2157,-0.2164,0,0,0,0,0,0,-0.192,-0.193,-0.1956,-0.1964,-0.1972,-0.2025,-0.2016,-0.2021,-0.2054,-0.2057,-0.2069,-0.2069,-0.2056,-0.2078,-0.2078,-0.2099,-0.2062,-0.2106,-0.2109,-0.2111,-0.2152,-0.2158,-0.2164,0,0,0,0,0,-0.1922,-0.193,-0.1994,-0.1963,-0.197,-0.1995,-0.2016,-0.2021,-0.2054,-0.2041,-0.2044,-0.2071,-0.2055,-0.2056,-0.2078,-0.21,-0.2062,-0.2062,-0.2108,-0.211,-0.2112,-0.2155,0,0,0,0,0,0,-0.1924,-0.193,-0.1995,-0.1997,-0.1967,-0.1994,-0.2001,-0.202,-0.2037,-0.204,-0.2039,-0.204,-0.2055,-0.2055,-0.2056,-0.2102,-0.2062,-0.2062,-0.2062,-0.211,-0.2111,-0.2113,0,0,0,0,0,0,-0.1925,-0.1932,-0.1996,-0.2001,-0.2003,-0.1992,-0.1999,-0.1997,-0.2036,-0.2033,-0.2036,-0.2039,-0.205,-0.2055,-0.2055,-0.2051,-0.2062,-0.2062,-0.2062,-0.2062,-0.2111,-0.2112,0,0,0,0,0,0,-0.1928,-0.1933,-0.2,-0.2002,-0.2005,-0.2029,-0.199,-0.2027,-0.2048,-0.2032,-0.2049,-0.205,-0.2049,-0.205,-0.2055,-0.2051,-0.2051,-0.2062,-0.2062,-0.2062,-0.2062,0,0,0,0,0,0,0,-0.193,-0.1895,-0.1983,-0.2004,-0.2006,-0.2016,-0.2017,-0.2017,-0.2048,-0.2048,-0.2049,-0.205,-0.2062,-0.2062,-0.2062,-0.205,0,0,-0.2062,-0.2062,0,0,0,0,0,0,0,0,-0.1893,-0.1895,-0.1984,-0.1984,-0.1984,-0.2016,-0.2017,-0.2017,-0.2048,-0.2048,-0.2049,-0.2049,-0.2062,-0.2062,-0.2062,0,0,0,0,0,0,0,0,0,0,0,0,0,0,0,-0.1984,-0.1984,0,-0.2016,-0.2017,-0.2017,-0.2048,-0.2048,-0.2049,-0.2049,-0.2062,-0.2062,-0.2062,0,0,0,0,0,0,0,0,0,0,0,0,0,0,0,0,0,0,0,0,0,0,0,0,0,0,0,0,0,0,0,0,0,0,0,0,0,0,0,0,0,0,0,0,0,0,0,0,0,0,0,0,0,0,0,0,0,0,0,0,0,0,0,0,0,0,0,0,0]}],[{"header":{"parameterUnit":"kt","parameterCategory":2,"dx":1,"dy":1,"la1":30.253999710083008,"la2":30.299108505249023,"lo1":-89.0895004272461,"lo2":-89.04439544677734,"nx":28,"ny":28,"refTime":"2022-10-04T21:00:00:Z","depth":"4","parameterNumber":3,"parameterNumberName":"V-component_of_CURRENTS"},"data":[-0.0743,-0.0833,-0.0869,-0.1004,-0.1082,-0.1177,-0.1198,-0.1182,-0.1138,-0.109,-0.0905,-0.0796,-0.045,-0.0647,-0.0106,-0.0029,0.0174,0.0464,0.0469,0.0788,0.0794,0.0798,0.0647,0,0,0,0,0,-0.0694,-0.0767,-0.0855,-0.0962,-0.1045,-0.109,-0.1133,-0.1127,-0.1107,-0.1074,-0.1025,-0.0837,-0.0487,-0.0339,-0.0093,-0.0004,0.0405,0.0293,0.0559,0.0792,0.0797,0.0648,0,0,0,0,0,0,-0.0646,-0.0706,-0.0778,-0.0866,-0.096,-0.103,-0.1049,-0.1059,-0.1064,-0.1,-0.0988,-0.0765,-0.0616,-0.0257,0.0014,0.0276,0.0354,0.0476,0.0498,0.0507,0.0342,0.0159,0.0224,0,0,0,0,0,-0.0598,-0.0625,-0.0683,-0.0785,-0.0857,-0.093,-0.0983,-0.1002,-0.0979,-0.0954,-0.0888,-0.0699,-0.0493,-0.0157,0.0123,0.0412,0.0707,0.0754,0.076,0.0754,0.0651,0.0653,0.0636,0.082,0.082,0.0821,0.0821,0,-0.0543,-0.0576,-0.0655,-0.0709,-0.0739,-0.08,-0.084,-0.0827,-0.0836,-0.0798,-0.0795,-0.0637,-0.0505,-0.01,0.0191,0.0593,0.0623,0.0767,0.076,0.0658,0.0663,0.0643,0.0624,0.0826,0.0825,0.0825,0.0825,0,-0.0514,-0.0531,-0.0597,-0.0636,-0.0658,-0.0702,-0.0749,-0.0758,-0.0711,-0.0701,-0.068,-0.0524,-0.0315,-0.0038,0.0296,0.045,0.069,0.0735,0.0641,0.0654,0.0645,0.0623,0.0834,0.0832,0.083,0.0829,0.0828,0,-0.0468,-0.0513,-0.0546,-0.0575,-0.0633,-0.0622,-0.065,-0.0616,-0.0568,-0.0566,-0.0422,-0.0394,-0.0098,0.0075,0.0272,0.0478,0.0565,0.0597,0.0623,0.0587,0.0567,0.0612,0.0592,0.0769,0.0767,0.0766,0.0765,0,-0.0422,-0.0473,-0.0518,-0.0532,-0.055,-0.056,-0.056,-0.0496,-0.0494,-0.0385,-0.038,-0.0184,-0.0139,0.0091,0.0246,0.0239,0.0524,0.0544,0.057,0.0562,0.0596,0.0579,0.0763,0.0763,0.0762,0.0762,0.0761,0,-0.0383,-0.0411,-0.0465,-0.0498,-0.0507,-0.052,-0.0493,-0.0479,-0.038,-0.0354,-0.0261,-0.0212,-0.0076,-0.0067,0.0195,0.0113,0.0225,0.0311,0.0322,0.0243,0.0212,0.0308,0.04,0.0397,0.0394,0.0391,0.0388,0,-0.0337,-0.0389,-0.0388,-0.0432,-0.0457,-0.0424,-0.0412,-0.0376,-0.0337,-0.0292,-0.0207,-0.0193,-0.0165,-0.0171,-0.0047,0.0036,0.0152,0.0029,0.0264,0.027,0.0195,0.0267,0.0153,0.0343,0.0349,0.0353,0.0356,0,-0.0301,-0.0329,-0.0338,-0.0358,-0.0354,-0.0369,-0.0344,-0.0317,-0.0298,-0.0263,-0.0228,-0.0206,-0.0176,-0.0169,-0.0156,-0.0053,0.0084,-0.0047,-0.0041,0.0045,0.0329,0.0224,0.024,0.013,0.0134,0.0138,0.0325,0,-0.0267,-0.0292,-0.0306,-0.0317,-0.0322,-0.034,-0.0318,-0.0304,-0.0291,-0.0267,-0.0241,-0.0226,-0.0206,-0.0208,-0.0222,-0.0128,-0.0131,-0.0116,-0.008,-0.0047,0.002,0.0045,-0.0246,-0.0246,-0.0246,-0.0246,0,0,-0.0227,-0.0257,-0.025,-0.027,-0.0279,-0.0253,-0.0276,-0.0258,-0.0261,-0.0245,-0.0257,-0.0241,-0.0241,-0.0203,-0.0214,-0.0229,-0.0173,-0.0219,-0.0097,-0.0081,-0.0066,0.0003,0.0026,-0.0246,-0.0247,-0.0247,-0.0247,0,-0.0215,-0.0222,-0.0243,-0.0249,-0.0254,-0.0244,-0.0249,-0.0249,-0.0238,-0.0253,-0.024,-0.0227,-0.0257,-0.0225,-0.0221,-0.0235,-0.0178,-0.0258,-0.0228,-0.0103,-0.0087,-0.0072,-0.0002,0.0019,-0.0247,-0.0247,-0.0247,0,-0.0186,-0.0193,-0.0203,-0.0218,-0.0218,-0.0227,-0.0211,-0.0222,-0.0219,-0.0216,-0.0217,-0.0223,-0.0224,-0.0229,-0.0233,-0.0224,-0.0161,-0.023,-0.0231,-0.0213,-0.0082,-0.0065,-0.005,-0.0228,-0.0228,-0.0227,0,0,-0.0175,-0.0191,-0.0195,-0.0215,-0.0218,-0.0212,-0.0214,-0.0209,-0.0213,-0.0214,-0.0209,-0.0211,-0.0216,-0.0214,-0.0225,-0.0231,-0.017,-0.0227,-0.0228,-0.0228,-0.0211,-0.0082,-0.0067,-0.0227,-0.0227,-0.0227,0,0,-0.0168,-0.0178,-0.0174,-0.0199,-0.0201,-0.0199,-0.0205,-0.0198,-0.0203,-0.0202,-0.0192,-0.0192,-0.0206,-0.0206,-0.0197,-0.0203,-0.0202,-0.0204,-0.019,-0.0191,-0.0192,-0.0167,-0.0172,0,0,0,0,0,-0.0156,-0.0178,-0.0175,-0.0178,-0.0193,-0.0203,-0.0203,-0.0192,-0.0182,-0.0188,-0.0189,-0.0175,-0.0197,-0.0189,-0.0191,-0.0181,-0.0216,-0.0218,-0.022,-0.0205,-0.0206,-0.0208,0,0,0,0,0,0,-0.0158,-0.0163,-0.0174,-0.0175,-0.0178,-0.0202,-0.0182,-0.0179,-0.0181,-0.0178,-0.0176,-0.0174,-0.0167,-0.0187,-0.0189,-0.0179,-0.0171,-0.0217,-0.0219,-0.022,-0.0206,-0.0207,-0.0208,0,0,0,0,0,-0.0159,-0.0163,-0.0192,-0.0174,-0.0176,-0.0167,-0.0181,-0.0179,-0.0179,-0.0173,-0.0172,-0.0171,-0.0167,-0.0169,-0.0188,-0.0178,-0.017,-0.0171,-0.0218,-0.0219,-0.022,-0.0206,0,0,0,0,0,0,-0.016,-0.0158,-0.0192,-0.0192,-0.0166,-0.0165,-0.0166,-0.0178,-0.0174,-0.0172,-0.0168,-0.0166,-0.0168,-0.0169,-0.017,-0.0178,-0.0169,-0.0169,-0.017,-0.0219,-0.022,-0.0221,0,0,0,0,0,0,-0.0155,-0.0158,-0.0192,-0.0183,-0.0182,-0.0163,-0.0164,-0.0176,-0.0174,-0.0169,-0.0167,-0.0167,-0.0169,-0.0169,-0.017,-0.0188,-0.0168,-0.0168,-0.0169,-0.0169,-0.022,-0.0221,0,0,0,0,0,0,-0.0156,-0.0158,-0.0183,-0.0182,-0.0181,-0.0176,-0.0173,-0.019,-0.0164,-0.0169,-0.0161,-0.016,-0.0169,-0.017,-0.017,-0.0188,-0.0188,-0.0168,-0.0168,-0.0169,-0.0169,0,0,0,0,0,0,0,-0.0156,-0.0147,-0.0194,-0.0181,-0.018,-0.019,-0.019,-0.0189,-0.0163,-0.0163,-0.0162,-0.0161,-0.0163,-0.0164,-0.0165,-0.0188,0,0,-0.0168,-0.0168,0,0,0,0,0,0,0,0,-0.0145,-0.0147,-0.0194,-0.0194,-0.0194,-0.019,-0.019,-0.019,-0.0163,-0.0163,-0.0162,-0.0161,-0.0163,-0.0164,-0.0165,0,0,0,0,0,0,0,0,0,0,0,0,0,0,0,-0.0194,-0.0194,0,-0.019,-0.019,-0.019,-0.0163,-0.0163,-0.0162,-0.0161,-0.0163,-0.0164,-0.0165,0,0,0,0,0,0,0,0,0,0,0,0,0,0,0,0,0,0,0,0,0,0,0,0,0,0,0,0,0,0,0,0,0,0,0,0,0,0,0,0,0,0,0,0,0,0,0,0,0,0,0,0,0,0,0,0,0,0,0,0,0,0,0,0,0,0,0,0,0]}]]]